Weather History for Harbor Springs, MI

Change the Weather History Date:

Wednesday, January 5, 2011

  Actual Average (KPLN) Record (KPLN)
Temperature  
Mean Temperature 24 °F -  
Max Temperature 26 °F 26 °F 46 °F (2007)
Min Temperature 21 °F 13 °F -12 °F (1968)
Degree Days  
Heating Degree Days 42    
Moisture  
Dew Point 16 °F    
Average Humidity 70    
Maximum Humidity 86    
Minimum Humidity 59    
Precipitation  
Precipitation 0.00 in - - ()
Sea Level Pressure  
Sea Level Pressure 29.87 in    
Wind  
Wind Speed 6 mph (SW)    
Max Wind Speed 13 mph    
Max Gust Speed 18 mph    
Visibility 10 miles    
Events Snow    
Averages and records for this station are not official NWS values.
T = Trace of Precipitation, MM = Missing Value Source: NWS Daily Summary

Daily Weather History Graph

Daily Weather History Graph

Search for Another Location

Airport:

Trip Planner

Search our weather history database for the weather conditions in past years. The results will help you decide how hot, cold, wet, or windy it might be!

Date:

Astronomy

Jan. 05, 2011 Rise Set
Actual Time 8:19 AM EST 5:10 PM EST
Civil Twilight 7:45 AM EST 5:44 PM EST
Nautical Twilight 7:08 AM EST 6:21 PM EST
Astronomical Twilight 6:32 AM EST 6:57 PM EST
Moon 9:00 AM EST (1/5) 6:50 PM EST (1/5)
Length of Visible Light 9h 59m
Length of Day
8h 51m
New Moon, 2% of the Moon is Illuminated
Jan 5
New Moon
Jan 12
First Quarter
Jan 19
Full
Jan 26
Last Quarter
Feb 2
New

Hourly Weather History & Observations

Time (EST) Temp. Windchill Dew Point Humidity Pressure Visibility Wind Dir Wind Speed Gust Speed Precip Events Conditions
12:14 AM 26.6 °F 18.2 °F 14.0 °F 59% 29.90 in 10.0 mi WNW 8.1 mph - N/A   Overcast
12:35 AM 26.6 °F 19.1 °F 14.0 °F 59% 29.90 in 10.0 mi West 6.9 mph - N/A   Overcast
12:54 AM 26.6 °F 21.2 °F 14.0 °F 59% 29.90 in 10.0 mi WNW 4.6 mph - N/A   Overcast
1:14 AM 24.8 °F 17.9 °F 14.0 °F 64% 29.90 in 10.0 mi WNW 5.8 mph - N/A   Overcast
1:35 AM 24.8 °F - 14.0 °F 64% 29.90 in 10.0 mi Calm Calm - N/A   Overcast
1:54 AM 24.8 °F 16.9 °F 12.2 °F 59% 29.90 in 10.0 mi West 6.9 mph - N/A   Mostly Cloudy
2:14 AM 23.0 °F 15.8 °F 12.2 °F 63% 29.90 in 10.0 mi NW 5.8 mph - N/A   Mostly Cloudy
2:35 AM 23.0 °F 17.0 °F 12.2 °F 63% 29.91 in 10.0 mi NW 4.6 mph - N/A   Mostly Cloudy
2:54 AM 23.0 °F - 12.2 °F 63% 29.91 in 10.0 mi Calm Calm - N/A   Overcast
3:14 AM 23.0 °F - 12.2 °F 63% 29.90 in 10.0 mi Calm Calm - N/A   Overcast
3:34 AM 23.0 °F 18.4 °F 12.2 °F 63% 29.90 in 10.0 mi NNW 3.5 mph - N/A   Overcast
3:55 AM 23.0 °F 18.4 °F 12.2 °F 63% 29.90 in 10.0 mi North 3.5 mph - N/A   Overcast
4:14 AM 23.0 °F - 12.2 °F 63% 29.90 in 10.0 mi Calm Calm - N/A   Overcast
4:35 AM 23.0 °F - 12.2 °F 63% 29.90 in 10.0 mi Calm Calm - N/A   Overcast
4:54 AM 23.0 °F - 12.2 °F 63% 29.89 in 10.0 mi Calm Calm - N/A   Overcast
5:14 AM 23.0 °F - 14.0 °F 68% 29.90 in 10.0 mi Calm Calm - N/A   Overcast
5:35 AM 21.2 °F - 14.0 °F 74% 29.89 in 10.0 mi Calm Calm - N/A   Overcast
5:54 AM 21.2 °F 16.4 °F 14.0 °F 74% 29.90 in 10.0 mi WNW 3.5 mph - N/A   Overcast
6:14 AM 23.0 °F 17.0 °F 14.0 °F 68% 29.90 in 10.0 mi West 4.6 mph - N/A   Overcast
6:35 AM 23.0 °F - 14.0 °F 68% 29.91 in 10.0 mi Calm Calm - N/A   Overcast
6:54 AM 23.0 °F 17.0 °F 17.6 °F 80% 29.91 in 10.0 mi SW 4.6 mph - N/A   Overcast
7:14 AM 24.8 °F 16.1 °F 17.6 °F 74% 29.91 in 10.0 mi SSW 8.1 mph - N/A Snow Light Snow
7:35 AM 24.8 °F 14.6 °F 17.6 °F 74% 29.92 in 10.0 mi SW 10.4 mph 16.1 mph N/A Snow Light Snow
7:54 AM 24.8 °F 13.4 °F 19.4 °F 80% 29.91 in 2.5 mi SW 12.7 mph 18.4 mph N/A Snow Light Snow
8:14 AM 24.8 °F 13.4 °F 19.4 °F 80% 29.91 in 5.0 mi SW 12.7 mph 18.4 mph N/A Snow Light Snow
8:35 AM 23.0 °F 12.4 °F 19.4 °F 86% 29.90 in 7.0 mi SW 10.4 mph - N/A Snow Light Snow
8:54 AM 24.8 °F 16.1 °F 19.4 °F 80% 29.90 in 10.0 mi SW 8.1 mph - N/A Snow Light Snow
9:14 AM 26.6 °F 16.8 °F 19.4 °F 74% 29.90 in 10.0 mi SW 10.4 mph - N/A   Overcast
9:35 AM 24.8 °F 16.9 °F 17.6 °F 74% 29.90 in 10.0 mi SSW 6.9 mph - N/A   Overcast
9:54 AM 26.6 °F 16.8 °F 19.4 °F 74% 29.90 in 10.0 mi SW 10.4 mph - N/A   Mostly Cloudy
10:14 AM 26.6 °F 17.5 °F 19.4 °F 74% 29.90 in 10.0 mi SW 9.2 mph 17.3 mph N/A   Mostly Cloudy
10:34 AM 26.6 °F 17.5 °F 17.6 °F 69% 29.90 in 10.0 mi SW 9.2 mph - N/A   Mostly Cloudy
10:54 AM 26.6 °F 17.5 °F 17.6 °F 69% 29.90 in 10.0 mi SW 9.2 mph - N/A   Mostly Cloudy
11:34 AM 24.8 °F 14.6 °F 17.6 °F 74% 29.89 in 10.0 mi SSW 10.4 mph 16.1 mph N/A   Overcast
11:54 AM 24.8 °F 14.6 °F 17.6 °F 74% 29.88 in 10.0 mi SSW 10.4 mph 17.3 mph N/A   Overcast
12:14 PM 24.8 °F 14.6 °F 17.6 °F 74% 29.87 in 10.0 mi SSW 10.4 mph 17.3 mph N/A   Overcast
12:34 PM 24.8 °F 16.1 °F 17.6 °F 74% 29.86 in 10.0 mi WSW 8.1 mph 16.1 mph N/A   Overcast
12:54 PM 24.8 °F 16.1 °F 15.8 °F 69% 29.85 in 10.0 mi SW 8.1 mph - N/A   Overcast
1:15 PM 26.6 °F 17.5 °F 17.6 °F 69% 29.84 in 10.0 mi SSW 9.2 mph - N/A   Overcast
1:34 PM 24.8 °F 16.1 °F 15.8 °F 69% 29.84 in 10.0 mi SW 8.1 mph - N/A   Overcast
1:54 PM 24.8 °F 16.9 °F 15.8 °F 69% 29.83 in 10.0 mi SSW 6.9 mph - N/A   Overcast
2:15 PM 24.8 °F 15.3 °F 17.6 °F 74% 29.83 in 10.0 mi SSW 9.2 mph - N/A   Overcast
2:34 PM 24.8 °F 16.1 °F 17.6 °F 74% 29.82 in 10.0 mi SSW 8.1 mph 17.3 mph N/A   Overcast
2:55 PM 24.8 °F 16.9 °F 15.8 °F 69% 29.82 in 10.0 mi SSW 6.9 mph - N/A   Overcast
3:15 PM 23.0 °F 15.8 °F 15.8 °F 74% 29.82 in 10.0 mi SSW 5.8 mph - N/A   Overcast
3:34 PM 24.8 °F 16.9 °F 17.6 °F 74% 29.82 in 10.0 mi SSW 6.9 mph - N/A   Overcast
3:55 PM 24.8 °F 16.9 °F 17.6 °F 74% 29.81 in 10.0 mi South 6.9 mph - N/A   Overcast
4:14 PM 23.0 °F 15.8 °F 15.8 °F 74% 29.81 in 10.0 mi South 5.8 mph - N/A   Overcast
4:34 PM 23.0 °F 18.4 °F 17.6 °F 80% 29.81 in 10.0 mi South 3.5 mph - N/A   Overcast
4:55 PM 23.0 °F 15.8 °F 15.8 °F 74% 29.80 in 10.0 mi South 5.8 mph - N/A   Overcast
5:14 PM 23.0 °F 18.4 °F 15.8 °F 74% 29.80 in 10.0 mi South 3.5 mph - N/A   Overcast
5:34 PM 23.0 °F 18.4 °F 15.8 °F 74% 29.80 in 10.0 mi South 3.5 mph - N/A   Overcast
5:55 PM 23.0 °F 17.0 °F 15.8 °F 74% 29.79 in 10.0 mi South 4.6 mph - N/A   Overcast
6:14 PM 23.0 °F 14.7 °F 15.8 °F 74% 29.79 in 10.0 mi South 6.9 mph - N/A   Overcast
6:34 PM 23.0 °F 18.4 °F 14.0 °F 68% 29.79 in 10.0 mi SSE 3.5 mph - N/A   Overcast
6:55 PM 23.0 °F 17.0 °F 14.0 °F 68% 29.79 in 10.0 mi SSE 4.6 mph - N/A   Overcast
7:14 PM 23.0 °F 17.0 °F 15.8 °F 74% 29.78 in 10.0 mi South 4.6 mph - N/A   Overcast
7:34 PM 23.0 °F 17.0 °F 15.8 °F 74% 29.78 in 10.0 mi SSE 4.6 mph - N/A   Overcast
7:55 PM 23.0 °F 18.4 °F 15.8 °F 74% 29.77 in 10.0 mi SE 3.5 mph - N/A   Overcast
8:14 PM 23.0 °F - 14.0 °F 68% 29.76 in 10.0 mi Calm Calm - N/A   Overcast
8:34 PM 23.0 °F - 15.8 °F 74% 29.76 in 10.0 mi Calm Calm - N/A   Overcast
8:54 PM 23.0 °F - 14.0 °F 68% 29.75 in 10.0 mi Calm Calm - N/A   Mostly Cloudy
9:34 PM 23.0 °F - 14.0 °F 68% 29.73 in 10.0 mi Calm Calm - N/A   Scattered Clouds
9:54 PM 23.0 °F - 14.0 °F 68% 29.72 in 10.0 mi Calm Calm - N/A   Mostly Cloudy
10:14 PM 23.0 °F 18.4 °F 15.8 °F 74% 29.72 in 10.0 mi SSE 3.5 mph - N/A   Overcast
10:35 PM 23.0 °F 15.8 °F 15.8 °F 74% 29.71 in 10.0 mi South 5.8 mph - N/A   Overcast
10:55 PM 23.0 °F 14.7 °F 15.8 °F 74% 29.71 in 10.0 mi South 6.9 mph - N/A   Overcast
11:14 PM 23.0 °F 14.7 °F 17.6 °F 80% 29.70 in 10.0 mi South 6.9 mph - N/A   Overcast
11:35 PM 23.0 °F 17.0 °F 17.6 °F 80% 29.70 in 10.0 mi South 4.6 mph - N/A Snow Light Snow
11:54 PM 23.0 °F 17.0 °F 17.6 °F 80% 29.69 in 10.0 mi South 4.6 mph - N/A   Overcast